Chambery, France

12:31 AM CET on January 20, 2018 (GMT +0100)
Aix-les-Bains

Weather History for LFLB - October, 2013

Change the Weather History Date:

Saturday, October 26, 2013

  Actual Average Record
Temperature  
Mean Temperature 58 °F -  
Max Temperature 69 °F 50 °F 71 °F (2006)
Min Temperature 48 °F 37 °F 24 °F (2003)
Degree Days  
Heating Degree Days 6    
Growing Degree Days 8 (Base 50)    
Moisture  
Dew Point 53 °F    
Average Humidity 88    
Maximum Humidity 100    
Minimum Humidity 60    
Precipitation  
Precipitation 0.00 in - - ()
Sea Level Pressure  
Sea Level Pressure 30.09 in    
Wind  
Wind Speed 2 mph ()    
Max Wind Speed 5 mph    
Max Gust Speed -    
Visibility 4.9 miles    
Events      
Averages and records for this station are not official NWS values.
T = Trace of Precipitation, MM = Missing Value Source: Averaged Metar Reports

Daily Weather History Graph

Daily Weather History Graph

Search for Another Location

Airport or City:

Trip Planner

Search our weather history database for the weather conditions in past years. The results will help you decide how hot, cold, wet, or windy it might be!

Date:

Astronomy

Oct. 26, 2013 Rise Set
Actual Time 8:07 AM CEST 6:32 PM CEST
Civil Twilight 7:37 AM CEST 7:02 PM CEST
Nautical Twilight 7:02 AM CEST 7:37 PM CEST
Astronomical Twilight 6:28 AM CEST 8:11 PM CEST
Moon No Moon Rise 2:17 PM CEST (10/26)
Length of Visible Light 11h 25m
Length of Day
10h 24m
Waning Gibbous, 55% of the Moon is Illuminated
Oct 26
Waning Gibbous
Oct 27
Last Quarter
Nov 3
New
Nov 10
First Quarter
Nov 17
Full

Hourly Weather History & Observations

Time (CEST) Temp. Dew Point Humidity Pressure Visibility Wind Dir Wind Speed Gust Speed Precip Events Conditions
12:00 AM 53.6 °F 51.8 °F 94% 30.09 in 4.3 mi Calm Calm - N/A   Unknown
12:30 AM 51.8 °F 50.0 °F 94% 30.09 in 6.2 mi Variable 2.3 mph - N/A   Unknown
1:00 AM 51.8 °F 50.0 °F 94% 30.09 in 5.0 mi Variable 2.3 mph - N/A   Unknown
1:30 AM 51.8 °F 51.8 °F 100% 30.09 in - Calm Calm - N/A   Mist
2:00 AM 51.8 °F 50.0 °F 94% 30.09 in 3.7 mi Variable 1.2 mph - N/A   Unknown
2:30 AM 50.0 °F 50.0 °F 100% 30.09 in 3.7 mi Variable 2.3 mph - N/A   Unknown
3:00 AM 51.8 °F 50.0 °F 94% 30.09 in 4.3 mi Calm Calm - N/A   Unknown
3:30 AM 50.0 °F 50.0 °F 100% 30.09 in 3.7 mi Variable 1.2 mph - N/A   Unknown
4:00 AM 48.2 °F 48.2 °F 100% 30.09 in 4.3 mi SSE 3.5 mph - N/A   Unknown
4:30 AM 48.2 °F 48.2 °F 100% 30.09 in 6.2 mi Variable 2.3 mph - N/A   Unknown
5:00 AM 48.2 °F 48.2 °F 100% 30.12 in 3.1 mi SE 3.5 mph - N/A   Mist
5:30 AM 48.2 °F 48.2 °F 100% 30.12 in 5.0 mi Variable 3.5 mph - N/A   Unknown
6:00 AM 50.0 °F 50.0 °F 100% 30.12 in 3.7 mi Variable 1.2 mph - N/A   Partly Cloudy
6:30 AM 48.2 °F 48.2 °F 100% 30.12 in 3.7 mi South 3.5 mph - N/A   Partly Cloudy
7:00 AM 50.0 °F 48.2 °F 94% 30.12 in 4.3 mi Variable 3.5 mph - N/A   Partly Cloudy
7:30 AM 50.0 °F 48.2 °F 94% 30.12 in 3.7 mi Variable 1.2 mph - N/A   Partly Cloudy
8:00 AM 48.2 °F 46.4 °F 93% 30.12 in 3.7 mi West 1.2 mph - N/A   Partly Cloudy
8:34 AM 48.2 °F 46.4 °F 93% 30.12 in 3.7 mi SSE 3.5 mph - N/A   Partly Cloudy
9:00 AM 48.2 °F 48.2 °F 100% 30.15 in 5.0 mi Variable 3.5 mph - N/A   Partly Cloudy
10:00 AM 53.6 °F 51.8 °F 94% 30.15 in - Variable 1.2 mph - N/A   Clear
11:00 AM 57.2 °F 55.4 °F 94% 30.15 in - Variable 1.2 mph - N/A   Clear
12:00 PM 60.8 °F 55.4 °F 82% 30.15 in - Calm Calm - N/A   Clear
12:30 PM 62.6 °F 55.4 °F 77% 30.15 in - Variable 2.3 mph - N/A   Clear
1:00 PM 68.0 °F 55.4 °F 64% 30.12 in - Calm Calm - N/A   Clear
1:30 PM 69.8 °F 55.4 °F 60% 30.12 in - Variable 2.3 mph - N/A   Clear
2:00 PM 68.0 °F 57.2 °F 68% 30.09 in - North 4.6 mph - N/A   Clear
3:00 PM 69.8 °F 55.4 °F 60% 30.09 in - NNE 3.5 mph - N/A   Clear
3:30 PM 69.8 °F 55.4 °F 60% 30.06 in - North 3.5 mph - N/A   Clear
4:00 PM 69.8 °F 57.2 °F 64% 30.06 in - Variable 2.3 mph - N/A   Clear
4:30 PM 69.8 °F 57.2 °F 64% 30.06 in - Variable 1.2 mph - N/A   Clear
5:00 PM 66.2 °F 57.2 °F 73% 30.04 in - NW 3.5 mph - N/A   Clear
5:30 PM 64.4 °F 57.2 °F 77% 30.04 in - North 2.3 mph - N/A   Clear
6:00 PM 62.6 °F 57.2 °F 82% 30.04 in - Calm Calm - N/A   Clear
6:30 PM 60.8 °F 55.4 °F 82% 30.06 in 1.5 mi SE 2.3 mph - N/A   Mist
7:00 PM 59.0 °F 55.4 °F 88% 30.06 in 6.2 mi Variable 2.3 mph - N/A   Unknown
7:30 PM 57.2 °F 53.6 °F 88% 30.06 in 6.2 mi Variable 2.3 mph - N/A   Unknown
8:00 PM 57.2 °F 55.4 °F 94% 30.06 in 6.2 mi Calm Calm - N/A   Unknown
8:30 PM 57.2 °F 55.4 °F 94% 30.06 in 6.2 mi Variable 3.5 mph - N/A   Unknown
9:00 PM 57.2 °F 55.4 °F 94% 30.06 in 6.2 mi Calm Calm - N/A   Unknown
9:30 PM 55.4 °F 53.6 °F 94% 30.06 in 6.2 mi Variable 1.2 mph - N/A   Unknown
10:00 PM 57.2 °F 55.4 °F 94% 30.06 in 6.2 mi Calm Calm - N/A   Unknown
10:30 PM 57.2 °F 55.4 °F 94% 30.06 in 6.2 mi Variable 2.3 mph - N/A   Unknown
11:00 PM 57.2 °F 55.4 °F 94% 30.04 in 6.2 mi Calm Calm - N/A   Unknown
11:30 PM 57.2 °F 55.4 °F 94% 30.04 in 6.2 mi Calm Calm - N/A   Unknown